Weather History for Tuscaloosa, AL

Change the Weather History Date:

Wednesday, August 7, 2013

  Actual Average Record
Temperature  
Mean Temperature 83 °F 82 °F  
Max Temperature 93 °F 92 °F 100 °F (1956)
Min Temperature 73 °F 71 °F 58 °F (1948)
Cooling Degree Days 17    
Growing Degree Days 32 (Base 50)    
Moisture  
Dew Point 74 °F    
Average Humidity 82    
Maximum Humidity 100    
Minimum Humidity 64    
Precipitation  
Precipitation 0.00 in 0.12 in 1.40 in (1950)
Month to date precipitation 1.31 0.84  
Year to date precipitation 36.11 33.41  
Sea Level Pressure  
Sea Level Pressure 29.97 in    
Wind  
Wind Speed 3 mph (SE)    
Max Wind Speed 14 mph    
Max Gust Speed 18 mph    
Visibility 7 miles    
Events      
T = Trace of Precipitation, MM = Missing Value Source: NWS Daily Summary

Daily Weather History Graph

Daily Weather History Graph

Search for Another Location

Airport:

Trip Planner

Search our weather history database for the weather conditions in past years. The results will help you decide how hot, cold, wet, or windy it might be!

Date:

Astronomy

Aug. 07, 2013 Rise Set
Actual Time 6:07 AM CDT 7:44 PM CDT
Civil Twilight 5:41 AM CDT 8:10 PM CDT
Nautical Twilight 5:09 AM CDT 8:42 PM CDT
Astronomical Twilight 4:35 AM CDT 9:16 PM CDT
Moon 6:50 AM CDT (8/7) 7:58 PM CDT (8/7)
Length of Visible Light 14h 29m
Length of Day
13h 36m
New Moon, 1% of the Moon is Illuminated
Aug 7
New Moon
Aug 14
First Quarter
Aug 20
Full
Aug 28
Last Quarter
Sep 5
New

Hourly Weather History & Observations

Time (CDT) Temp. Heat Index Dew Point Humidity Pressure Visibility Wind Dir Wind Speed Gust Speed Precip Events Conditions
12:45 AM 75.2 °F - 73.4 °F 94% 29.97 in 6.0 mi Calm Calm - N/A   Scattered Clouds
12:53 AM 75.0 °F - 73.9 °F 96% 29.96 in 6.0 mi Calm Calm - N/A   Mostly Cloudy
1:53 AM 75.0 °F - 73.0 °F 94% 29.97 in 6.0 mi Calm Calm - N/A   Mostly Cloudy
2:10 AM 75.2 °F - 73.4 °F 94% 29.97 in 6.0 mi Calm Calm - N/A   Scattered Clouds
2:35 AM 73.4 °F - 73.4 °F 100% 29.97 in 1.8 mi Calm Calm - N/A   Clear
2:53 AM 73.9 °F - 73.0 °F 97% 29.96 in 1.8 mi Calm Calm - N/A   Clear
2:59 AM 73.4 °F - 73.4 °F 100% 29.96 in 3.0 mi Calm Calm - N/A   Clear
3:18 AM 73.4 °F - 71.6 °F 94% 29.96 in 2.5 mi Calm Calm - N/A   Clear
3:28 AM 73.4 °F - 73.4 °F 100% 29.96 in 5.0 mi Calm Calm - N/A   Clear
3:53 AM 73.9 °F - 73.0 °F 97% 29.95 in 6.0 mi Calm Calm - N/A   Clear
4:06 AM 73.4 °F - 73.4 °F 100% 29.95 in 6.0 mi SSE 3.5 mph - N/A   Partly Cloudy
4:53 AM 75.0 °F - 73.0 °F 94% 29.94 in 7.0 mi Calm Calm - N/A   Scattered Clouds
5:53 AM 73.9 °F - 72.0 °F 93% 29.96 in 3.0 mi Calm Calm - N/A   Scattered Clouds
6:00 AM 73.4 °F - 71.6 °F 94% 29.97 in 5.0 mi Calm Calm - N/A   Mostly Cloudy
6:08 AM 73.4 °F - 71.6 °F 94% 29.97 in 4.0 mi Calm Calm - N/A   Scattered Clouds
6:53 AM 75.0 °F - 73.0 °F 94% 29.98 in 3.0 mi Calm Calm - N/A   Scattered Clouds
7:15 AM 75.2 °F - 73.4 °F 94% 29.99 in 4.0 mi Calm Calm - N/A   Mostly Cloudy
7:25 AM 75.2 °F - 73.4 °F 94% 30.00 in 4.0 mi Calm Calm - N/A   Mostly Cloudy
7:53 AM 77.0 °F - 73.9 °F 90% 29.99 in 6.0 mi Calm Calm - N/A   Mostly Cloudy
8:16 AM 78.8 °F - 73.4 °F 83% 30.00 in 7.0 mi South 5.8 mph - N/A   Scattered Clouds
8:29 AM 77.0 °F - 73.4 °F 89% 30.00 in 7.0 mi South 4.6 mph - N/A   Mostly Cloudy
8:53 AM 78.1 °F - 75.0 °F 90% 30.00 in 6.0 mi South 3.5 mph - N/A   Overcast
9:20 AM 78.8 °F - 75.2 °F 89% 30.01 in 6.0 mi Variable 3.5 mph - N/A   Mostly Cloudy
9:53 AM 81.0 °F 87.3 °F 75.9 °F 85% 30.01 in 6.0 mi South 6.9 mph - N/A   Haze
10:53 AM 82.9 °F 90.8 °F 75.9 °F 79% 30.01 in 6.0 mi Calm Calm - N/A   Haze
11:53 AM 86.0 °F 96.0 °F 75.9 °F 72% 29.98 in 9.0 mi SSW 3.5 mph - N/A   Clear
12:53 PM 88.0 °F 100.2 °F 77.0 °F 70% 29.97 in 10.0 mi Calm Calm - N/A   Clear
1:53 PM 90.0 °F 102.5 °F 77.0 °F 65% 29.96 in 10.0 mi ESE 3.5 mph - N/A   Clear
2:53 PM 91.9 °F 107.3 °F 78.1 °F 64% 29.93 in 10.0 mi Variable 5.8 mph - N/A   Mostly Cloudy
3:53 PM 89.1 °F 99.1 °F 75.0 °F 63% 29.93 in 10.0 mi East 11.5 mph 18.4 mph N/A   Scattered Clouds
4:53 PM 89.1 °F 100.2 °F 75.9 °F 65% 29.92 in 10.0 mi East 6.9 mph - N/A   Clear
5:53 PM 88.0 °F 101.3 °F 78.1 °F 72% 29.91 in 10.0 mi ESE 3.5 mph - N/A   Clear
6:53 PM 84.9 °F 96.6 °F 78.1 °F 80% 29.92 in 10.0 mi Calm Calm - N/A   Clear
7:53 PM 82.9 °F 92.8 °F 78.1 °F 85% 29.93 in 9.0 mi Calm Calm - N/A   Clear
8:53 PM 84.0 °F 91.9 °F 75.0 °F 74% 29.94 in 10.0 mi East 3.5 mph - N/A   Clear
9:53 PM 81.0 °F 87.3 °F 75.9 °F 85% 29.97 in 10.0 mi East 4.6 mph - N/A   Clear
10:53 PM 81.0 °F 86.7 °F 75.0 °F 82% 29.98 in 10.0 mi East 5.8 mph - N/A   Clear
11:53 PM 80.1 °F 85.1 °F 75.0 °F 85% 29.98 in 9.0 mi East 3.5 mph - N/A   Clear